Location: Blue Pit
(43.1414°N, 93.2208°W)
Time: 23:53:50
(UTC+00:00)

Cosmos 1763 Rocket - Pass Details

Date: 18 November 2025
Orbit: 728 x 774 km, 74.0° (Epoch: 14 December)

Event Time Altitude Azimuth Distance (km) Brightness Sun altitude
Rises 23:26:38 0° 342° (NNW) 3,234 6.7 -7.7°
Reaches altitude 10° 23:29:03 10° 345° (NNW) 2,297 5.9 -8.1°
Maximum altitude 23:34:14 67° 68° (ENE) 817 3.4 -9.0°
Drops below altitude 10° 23:39:19 10° 151° (SSE) 2,251 5.8 -9.9°
Sets 23:41:40 0° 154° (SSE) 3,163 6.6 -10.3°
